Viroqua, WI

7:39 AM CDT on September 25, 2017 (GMT -0500)
Viroqua

Weather History for KY51 - March, 2013

Change the Weather History Date:

Monday, March 4, 2013

  Actual Average (KCMY) Record (KCMY)
Temperature  
Mean Temperature 24 °F -  
Max Temperature 28 °F 38 °F 63 °F (1983)
Min Temperature 21 °F 18 °F -23 °F (2002)
Degree Days  
Heating Degree Days 40    
Moisture  
Dew Point 17 °F    
Average Humidity 73    
Maximum Humidity 86    
Minimum Humidity 58    
Precipitation  
Precipitation 0.00 in - - ()
Sea Level Pressure  
Sea Level Pressure 29.98 in    
Wind  
Wind Speed 12 mph (ESE)    
Max Wind Speed 21 mph    
Max Gust Speed 25 mph    
Visibility 10 miles    
Events      
Averages and records for this station are not official NWS values.
T = Trace of Precipitation, MM = Missing Value Source: NWS Daily Summary

Daily Weather History Graph

Daily Weather History Graph

Search for Another Location

Airport or City:

Trip Planner

Search our weather history database for the weather conditions in past years. The results will help you decide how hot, cold, wet, or windy it might be!

Date:

Astronomy

Mar. 04, 2013 Rise Set
Actual Time 6:34 AM CST 5:56 PM CST
Civil Twilight 6:05 AM CST 6:25 PM CST
Nautical Twilight 5:32 AM CST 6:58 PM CST
Astronomical Twilight 4:59 AM CST 7:31 PM CST
Moon 12:51 AM CST (3/4) 10:30 AM CST (3/4)
Length of Visible Light 12h 19m
Length of Day
11h 22m
Waning Gibbous, 52% of the Moon is Illuminated
Mar 4
Waning Gibbous
Mar 4
Last Quarter
Mar 11
New
Mar 19
First Quarter
Mar 27
Full

Hourly Weather History & Observations

Time (CST) Temp. Windchill Dew Point Humidity Pressure Visibility Wind Dir Wind Speed Gust Speed Precip Events Conditions
12:15 AM 23.0 °F 13.9 °F 10.4 °F 59% 30.03 in 10.0 mi SSE 8.1 mph - N/A   Clear
12:35 AM 23.0 °F 13.9 °F 12.2 °F 63% 30.03 in 10.0 mi SE 8.1 mph - N/A   Scattered Clouds
12:55 AM 23.0 °F 13.1 °F 12.2 °F 63% 30.03 in 10.0 mi SE 9.2 mph - N/A   Scattered Clouds
1:15 AM 23.0 °F 13.9 °F 12.2 °F 63% 30.04 in 10.0 mi SE 8.1 mph - N/A   Mostly Cloudy
1:35 AM 21.2 °F 11.7 °F 12.2 °F 68% 30.04 in 10.0 mi ESE 8.1 mph - N/A   Overcast
1:55 AM 21.2 °F 10.9 °F 12.2 °F 68% 30.03 in 10.0 mi ESE 9.2 mph - N/A   Overcast
2:15 AM 21.2 °F 10.1 °F 12.2 °F 68% 30.02 in 10.0 mi ESE 10.4 mph - N/A   Scattered Clouds
2:35 AM 21.2 °F 10.9 °F 12.2 °F 68% 30.01 in 10.0 mi ESE 9.2 mph - N/A   Scattered Clouds
2:55 AM 21.2 °F 10.9 °F 12.2 °F 68% 30.01 in 10.0 mi ESE 9.2 mph - N/A   Mostly Cloudy
3:15 AM 21.2 °F 10.1 °F 12.2 °F 68% 30.00 in 10.0 mi ESE 10.4 mph - N/A   Mostly Cloudy
3:35 AM 21.2 °F 8.9 °F 10.4 °F 63% 30.00 in 10.0 mi ESE 12.7 mph - N/A   Overcast
3:55 AM 21.2 °F 10.9 °F 10.4 °F 63% 30.00 in 10.0 mi ESE 9.2 mph - N/A   Overcast
4:15 AM 21.2 °F 10.1 °F 10.4 °F 63% 30.00 in 10.0 mi ESE 10.4 mph - N/A   Overcast
4:35 AM 21.2 °F 10.1 °F 8.6 °F 58% 30.00 in 10.0 mi ESE 10.4 mph - N/A   Overcast
4:55 AM 21.2 °F 11.7 °F 8.6 °F 58% 30.00 in 10.0 mi ESE 8.1 mph - N/A   Overcast
5:15 AM 21.2 °F 10.9 °F 8.6 °F 58% 30.00 in 10.0 mi ESE 9.2 mph - N/A   Overcast
5:35 AM 21.2 °F 9.5 °F 8.6 °F 58% 30.00 in 10.0 mi ESE 11.5 mph - N/A   Overcast
6:15 AM 21.2 °F 8.9 °F 10.4 °F 63% 30.00 in 10.0 mi ESE 12.7 mph - N/A   Overcast
6:35 AM 21.2 °F 8.9 °F 10.4 °F 63% 30.00 in 10.0 mi ESE 12.7 mph - N/A   Overcast
6:55 AM 21.2 °F 8.3 °F 10.4 °F 63% 29.99 in 10.0 mi ESE 13.8 mph - N/A   Overcast
7:15 AM 21.2 °F 9.5 °F 10.4 °F 63% 29.99 in 10.0 mi ESE 11.5 mph - N/A   Overcast
7:35 AM 21.2 °F 8.9 °F 10.4 °F 63% 30.00 in 10.0 mi ESE 12.7 mph - N/A   Overcast
7:55 AM 21.2 °F 8.9 °F 10.4 °F 63% 30.00 in 10.0 mi ESE 12.7 mph 18.4 mph N/A   Overcast
8:15 AM 23.0 °F 10.6 °F 12.2 °F 63% 30.00 in 10.0 mi ESE 13.8 mph - N/A   Overcast
8:35 AM 23.0 °F 10.1 °F 12.2 °F 63% 30.00 in 10.0 mi ESE 15.0 mph - N/A   Overcast
8:55 AM 23.0 °F 9.6 °F 14.0 °F 68% 29.99 in 10.0 mi ESE 16.1 mph - N/A   Overcast
9:15 AM 23.0 °F 9.6 °F 14.0 °F 68% 29.98 in 10.0 mi ESE 16.1 mph - N/A   Overcast
9:35 AM 24.8 °F 11.9 °F 15.8 °F 69% 29.99 in 10.0 mi ESE 16.1 mph 20.7 mph N/A   Overcast
9:55 AM 24.8 °F 11.9 °F 15.8 °F 69% 29.99 in 10.0 mi ESE 16.1 mph 24.2 mph N/A   Overcast
10:15 AM 24.8 °F 11.9 °F 15.8 °F 69% 29.99 in 10.0 mi ESE 16.1 mph 23.0 mph N/A   Overcast
10:35 AM 24.8 °F 12.9 °F 17.6 °F 74% 29.99 in 10.0 mi ESE 13.8 mph 21.9 mph N/A   Overcast
10:55 AM 24.8 °F 12.9 °F 19.4 °F 80% 29.99 in 10.0 mi ESE 13.8 mph 21.9 mph N/A   Overcast
11:15 AM 24.8 °F 11.9 °F 19.4 °F 80% 29.99 in 10.0 mi ESE 16.1 mph 19.6 mph N/A   Overcast
11:35 AM 24.8 °F 11.9 °F 19.4 °F 80% 29.99 in 10.0 mi ESE 16.1 mph 23.0 mph N/A   Overcast
11:55 AM 24.8 °F 11.9 °F 19.4 °F 80% 29.99 in 10.0 mi ESE 16.1 mph - N/A   Overcast
12:15 PM 26.6 °F 14.7 °F 19.4 °F 74% 29.98 in 10.0 mi East 15.0 mph - N/A   Overcast
12:55 PM 24.8 °F 12.4 °F 19.4 °F 80% 29.97 in 7.0 mi East 15.0 mph 20.7 mph N/A   Overcast
1:15 PM 26.6 °F 14.3 °F 19.4 °F 74% 29.97 in 10.0 mi East 16.1 mph - N/A   Overcast
1:35 PM 26.6 °F 13.4 °F 21.2 °F 80% 29.95 in 10.0 mi East 18.4 mph 21.9 mph N/A   Overcast
1:55 PM 26.6 °F 12.7 °F 21.2 °F 80% 29.94 in 10.0 mi East 20.7 mph - N/A   Overcast
2:15 PM 26.6 °F 14.7 °F 21.2 °F 80% 29.95 in 10.0 mi ESE 15.0 mph 23.0 mph N/A   Overcast
2:35 PM 26.6 °F 12.7 °F 21.2 °F 80% 29.94 in 10.0 mi East 20.7 mph 25.3 mph N/A   Overcast
3:15 PM 26.6 °F 14.3 °F 21.2 °F 80% 29.94 in 10.0 mi East 16.1 mph 23.0 mph N/A   Overcast
3:35 PM 28.4 °F 15.8 °F 21.2 °F 74% 29.94 in 10.0 mi ESE 18.4 mph - N/A   Mostly Cloudy
3:55 PM 28.4 °F 16.2 °F 21.2 °F 74% 29.94 in 10.0 mi ESE 17.3 mph 24.2 mph N/A   Scattered Clouds
4:15 PM 28.4 °F 17.0 °F 21.2 °F 74% 29.95 in 10.0 mi East 15.0 mph 19.6 mph N/A   Mostly Cloudy
4:35 PM 28.4 °F 18.5 °F 21.2 °F 74% 29.95 in 10.0 mi East 11.5 mph - N/A   Overcast
4:55 PM 28.4 °F 17.0 °F 21.2 °F 74% 29.94 in 10.0 mi ESE 15.0 mph - N/A   Overcast
5:15 PM 28.4 °F 17.5 °F 23.0 °F 80% 29.94 in 10.0 mi East 13.8 mph - N/A   Overcast
5:35 PM 28.4 °F 18.5 °F 23.0 °F 80% 29.95 in 10.0 mi East 11.5 mph - N/A   Overcast
5:55 PM 28.4 °F 18.5 °F 23.0 °F 80% 29.95 in 10.0 mi East 11.5 mph 18.4 mph N/A   Overcast
6:15 PM 28.4 °F 18.0 °F 23.0 °F 80% 29.96 in 10.0 mi East 12.7 mph 17.3 mph N/A   Overcast
6:35 PM 28.4 °F 19.1 °F 23.0 °F 80% 29.97 in 10.0 mi East 10.4 mph - N/A   Overcast
6:55 PM 28.4 °F 17.5 °F 23.0 °F 80% 29.96 in 10.0 mi East 13.8 mph - N/A   Overcast
7:15 PM 28.4 °F 19.7 °F 23.0 °F 80% 29.97 in 10.0 mi East 9.2 mph - N/A   Overcast
7:35 PM 28.4 °F 18.0 °F 23.0 °F 80% 29.97 in 10.0 mi East 12.7 mph - N/A   Overcast
7:55 PM 28.4 °F 19.1 °F 23.0 °F 80% 29.97 in 10.0 mi East 10.4 mph - N/A   Overcast
8:35 PM 28.4 °F 19.1 °F 24.8 °F 86% 29.98 in 10.0 mi ESE 10.4 mph - N/A   Overcast
8:55 PM 28.4 °F 17.5 °F 24.8 °F 86% 29.97 in 10.0 mi East 13.8 mph - N/A   Overcast
9:15 PM 28.4 °F 17.5 °F 24.8 °F 86% 29.97 in 10.0 mi East 13.8 mph - N/A   Overcast
9:35 PM 28.4 °F 17.0 °F 24.8 °F 86% 29.97 in 10.0 mi ESE 15.0 mph 18.4 mph N/A   Overcast
9:55 PM 28.4 °F 17.5 °F 23.0 °F 80% 29.97 in 10.0 mi ESE 13.8 mph - N/A   Overcast
10:15 PM 28.4 °F 21.2 °F 23.0 °F 80% 30.00 in 10.0 mi ESE 6.9 mph - N/A   Overcast
10:55 PM 28.4 °F 19.7 °F 23.0 °F 80% 30.00 in 10.0 mi East 9.2 mph - N/A   Overcast
11:15 PM 28.4 °F 19.7 °F 23.0 °F 80% 30.00 in 7.0 mi East 9.2 mph - N/A   Overcast
11:35 PM 28.4 °F 19.7 °F 23.0 °F 80% 29.99 in 7.0 mi East 9.2 mph - N/A   Overcast
11:55 PM 26.6 °F 17.5 °F 23.0 °F 86% 29.99 in 10.0 mi East 9.2 mph - N/A   Overcast